,,PA_Meas_PMT16A,,PR_Meas_QMR101_102,,RH_Meas_QMH101,,SR_Meas_QMS101,,TA_Meas_QMH101,,GenWind,,GenWind,
time,status,PA,status,PR,status,RH,status,SR,status,TA,status,DirAvg,status,SpdAvg,
2013-01-10, 00:00:04,VALID,919.103,VALID,0,VALID,89.9258,VALID,0,VALID,19.5873,VALID,2,VALID,0,
2013-01-10, 00:01:04,VALID,919.086,VALID,0,VALID,89.7886,VALID,0.107441,VALID,19.5483,VALID,2,VALID,0,
2013-01-10, 00:02:04,VALID,919.096,VALID,0,VALID,89.415,VALID,0,VALID,19.5093,VALID,2,VALID,0,
2013-01-10, 00:03:04,VALID,919.093,VALID,0,VALID,89.6056,VALID,0,VALID,19.4703,VALID,2,VALID,0,
2013-01-10, 00:04:04,VALID,919.139,VALID,0,VALID,90.2841,VALID,0,VALID,19.4703,VALID,2,VALID,0,
2013-01-10, 00:05:04,VALID,919.095,VALID,0,VALID,90.1926,VALID,0,VALID,19.4313,VALID,2,VALID,0,
2013-01-10, 00:06:04,VALID,919.088,VALID,0,VALID,90.6577,VALID,0,VALID,19.4118,VALID,2,VALID,0,
2013-01-10, 00:07:04,VALID,919.097,VALID,0,VALID,90.7949,VALID,0,VALID,19.4118,VALID,350,VALID,0,
2013-01-10, 00:08:04,VALID,919.1,VALID,0,VALID,90.9016,VALID,0,VALID,19.4118,VALID,331,VALID,0,
2013-01-10, 00:09:04,VALID,919.087,VALID,0,VALID,91.0236,VALID,0,VALID,19.3923,VALID,331,VALID,0,
2013-01-10, 00:10:04,VALID,919.093,VALID,0,VALID,91.3514,VALID,0,VALID,19.3923,VALID,15,VALID,0,
2013-01-10, 00:11:04,VALID,919.068,VALID,0,VALID,91.4352,VALID,0,VALID,19.4118,VALID,309,VALID,0,
2013-01-10, 00:12:04,VALID,919.051,VALID,0,VALID,91.1837,VALID,0,VALID,19.4313,VALID,309,VALID,0,
2013-01-10, 00:13:04,VALID,919.022,VALID,0,VALID,91.0465,VALID,0,VALID,19.3923,VALID,309,VALID,0,
2013-01-10, 00:14:04,VALID,919.007,VALID,0,VALID,91.1989,VALID,0,VALID,19.3533,VALID,352,VALID,0,
2013-01-10, 00:15:04,VALID,918.994,VALID,0,VALID,91.6182,VALID,0,VALID,19.3533,VALID,352,VALID,0,
2013-01-10, 00:16:04,VALID,918.99,VALID,0,VALID,91.824,VALID,0,VALID,19.3533,VALID,352,VALID,0,
2013-01-10, 00:17:04,VALID,919.028,VALID,0,VALID,91.9689,VALID,0,VALID,19.3728,VALID,352,VALID,0,
2013-01-10, 00:18:04,VALID,919.004,VALID,0,VALID,92.129,VALID,0,VALID,19.3728,VALID,352,VALID,0,
2013-01-10, 00:19:04,VALID,919.01,VALID,0,VALID,92.0223,VALID,0,VALID,19.3713,VALID,352,VALID,0,
2013-01-10, 00:20:04,VALID,918.97,VALID,0,VALID,91.9689,VALID,0,VALID,19.3728,VALID,352,VALID,0,
2013-01-10, 00:21:04,VALID,918.889,VALID,0,VALID,91.9536,VALID,0,VALID,19.3533,VALID,352,VALID,0,
2013-01-10, 00:22:04,VALID,918.866,VALID,0,VALID,91.9536,VALID,0,VALID,19.3338,VALID,352,VALID,0,
2013-01-10, 00:23:04,VALID,918.855,VALID,0,VALID,92.3958,VALID,0,VALID,19.3338,VALID,352,VALID,0,
2013-01-10, 00:24:04,VALID,918.856,VALID,0,VALID,92.3729,VALID,0,VALID,19.3338,VALID,352,VALID,0,
2013-01-10, 00:25:04,VALID,918.822,VALID,0,VALID,92.655,VALID,0,VALID,19.2948,VALID,352,VALID,0,
2013-01-10, 00:26:04,VALID,918.836,VALID,0,VALID,92.7541,VALID,0,VALID,19.2948,VALID,352,VALID,0,
2013-01-10, 00:27:04,VALID,918.821,VALID,0,VALID,92.8685,VALID,0,VALID,19.2558,VALID,352,VALID,0,
2013-01-10, 00:28:04,VALID,918.821,VALID,0,VALID,93.3868,VALID,0,VALID,19.2753,VALID,33,VALID,0,
2013-01-10, 00:29:04,VALID,918.802,VALID,0,VALID,93.707,VALID,0,VALID,19.2948,VALID,33,VALID,0,
2013-01-10, 00:30:04,VALID,918.827,VALID,0,VALID,93.7451,VALID,0,VALID,19.2948,VALID,33,VALID,0,
2013-01-10, 00:31:04,VALID,918.801,VALID,0,VALID,93.6842,VALID,0,VALID,19.2753,VALID,306,VALID,0,
2013-01-10, 00:32:04,VALID,918.817,VALID,0,VALID,93.6003,VALID,0,VALID,19.2948,VALID,327,VALID,0,
2013-01-10, 00:33:04,VALID,918.827,VALID,0,VALID,93.7299,VALID,0,VALID,19.3143,VALID,359,VALID,0,
2013-01-10, 00:34:04,VALID,918.852,VALID,0,VALID,93.7299,VALID,0,VALID,19.3143,VALID,349,VALID,0,
2013-01-10, 00:35:04,VALID,918.815,VALID,0,VALID,93.7528,VALID,0,VALID,19.3352,VALID,349,VALID,0,
2013-01-10, 00:36:04,VALID,918.829,VALID,0,VALID,93.9434,VALID,0,VALID,19.3338,VALID,349,VALID,0,
2013-01-10, 00:37:04,VALID,918.81,VALID,0.2,VALID,93.9967,VALID,0,VALID,19.3338,VALID,349,VALID,0,
2013-01-10, 00:38:04,VALID,918.789,VALID,0,VALID,94.1416,VALID,0,VALID,19.2962,VALID,349,VALID,0,
2013-01-10, 00:39:04,VALID,918.777,VALID,0.2,VALID,94.3169,VALID,0,VALID,19.3143,VALID,349,VALID,0,
2013-01-10, 00:40:04,VALID,918.787,VALID,0,VALID,94.5685,VALID,0,VALID,19.3937,VALID,21,VALID,0,
2013-01-10, 00:41:04,VALID,918.777,VALID,0,VALID,94.7362,VALID,0,VALID,19.3742,VALID,14,VALID,0,
2013-01-10, 00:42:04,VALID,918.749,VALID,0.2,VALID,94.8277,VALID,0,VALID,19.3742,VALID,26,VALID,0,
2013-01-10, 00:43:04,VALID,918.731,VALID,0,VALID,94.8429,VALID,0,VALID,19.3547,VALID,40,VALID,0,
2013-01-10, 00:44:04,VALID,918.722,VALID,0,VALID,94.9115,VALID,0,VALID,19.3338,VALID,40,VALID,0,
2013-01-10, 00:45:04,VALID,918.702,VALID,0.2,VALID,94.9496,VALID,0,VALID,19.3352,VALID,40,VALID,0,
2013-01-10, 00:46:04,VALID,918.673,VALID,0,VALID,95.0183,VALID,0,VALID,19.2948,VALID,40,VALID,0,
2013-01-10, 00:47:04,VALID,918.628,VALID,0,VALID,95.1097,VALID,0,VALID,19.2948,VALID,40,VALID,0,
2013-01-10, 00:48:04,VALID,918.623,VALID,0.2,VALID,95.1479,VALID,0,VALID,19.2753,VALID,74,VALID,0,
2013-01-10, 00:49:04,VALID,918.578,VALID,0,VALID,95.2546,VALID,0,VALID,19.2558,VALID,80,VALID,0,
2013-01-10, 00:50:04,VALID,918.586,VALID,0,VALID,95.3613,VALID,0,VALID,19.2767,VALID,80,VALID,0,
2013-01-10, 00:51:04,VALID,918.563,VALID,0,VALID,95.3689,VALID,0,VALID,19.2572,VALID,80,VALID,0,
2013-01-10, 00:52:04,VALID,918.531,VALID,0.2,VALID,95.4833,VALID,0,VALID,19.2572,VALID,80,VALID,0,
2013-01-10, 00:53:04,VALID,918.543,VALID,0,VALID,95.59,VALID,0,VALID,19.2363,VALID,80,VALID,0,
2013-01-10, 00:54:04,VALID,918.525,VALID,0,VALID,95.712,VALID,0,VALID,19.2558,VALID,80,VALID,0,
2013-01-10, 00:55:04,VALID,918.493,VALID,0,VALID,95.7882,VALID,0,VALID,19.2363,VALID,80,VALID,0,
2013-01-10, 00:56:04,VALID,918.506,VALID,0.2,VALID,95.9178,VALID,0,VALID,19.2363,VALID,80,VALID,0,
2013-01-10, 00:57:04,VALID,918.454,VALID,0,VALID,95.9559,VALID,0,VALID,19.2558,VALID,53,VALID,0,
2013-01-10, 00:58:04,VALID,918.435,VALID,0,VALID,96.0474,VALID,0,VALID,19.2558,VALID,53,VALID,0,
2013-01-10, 00:59:04,VALID,918.411,VALID,0,VALID,96.0398,VALID,0,VALID,19.2558,VALID,53,VALID,0,
2013-01-10, 01:00:04,VALID,918.372,VALID,0,VALID,96.2075,VALID,0,VALID,19.2543,VALID,53,VALID,0,
2013-01-10, 01:01:04,VALID,918.325,VALID,0,VALID,96.2304,VALID,0,VALID,19.2753,VALID,53,VALID,0,
2013-01-10, 01:02:04,VALID,918.332,VALID,0,VALID,96.1618,VALID,0,VALID,19.2767,VALID,53,VALID,0,
2013-01-10, 01:03:04,VALID,918.31,VALID,0,VALID,96.116,VALID,0,VALID,19.2363,VALID,53,VALID,0,
2013-01-10, 01:04:04,VALID,918.299,VALID,0.2,VALID,96.1236,VALID,0,VALID,19.2182,VALID,53,VALID,0,
2013-01-10, 01:05:04,VALID,918.302,VALID,0,VALID,96.1999,VALID,0,VALID,19.1973,VALID,53,VALID,0,
2013-01-10, 01:06:04,VALID,918.308,VALID,0,VALID,96.2456,VALID,0,VALID,19.1778,VALID,53,VALID,0,
2013-01-10, 01:07:04,VALID,918.335,VALID,0,VALID,96.238,VALID,0,VALID,19.1792,VALID,53,VALID,0,
2013-01-10, 01:08:04,VALID,918.32,VALID,0,VALID,96.3066,VALID,0,VALID,19.1987,VALID,53,VALID,0,
2013-01-10, 01:09:04,VALID,918.333,VALID,0,VALID,96.3447,VALID,0,VALID,19.1778,VALID,53,VALID,0,
2013-01-10, 01:10:04,VALID,918.309,VALID,0.2,VALID,96.3829,VALID,0,VALID,19.1778,VALID,53,VALID,0,
2013-01-10, 01:11:04,VALID,918.301,VALID,0,VALID,96.421,VALID,0,VALID,19.1987,VALID,53,VALID,0,
2013-01-10, 01:12:04,VALID,918.276,VALID,0,VALID,96.4286,VALID,0,VALID,19.1958,VALID,53,VALID,0,
2013-01-10, 01:13:04,VALID,918.278,VALID,0,VALID,96.4286,VALID,0,VALID,19.1973,VALID,53,VALID,0,
2013-01-10, 01:14:04,VALID,918.25,VALID,0,VALID,96.4515,VALID,0,VALID,19.1958,VALID,53,VALID,0,
2013-01-10, 01:15:04,VALID,918.233,VALID,0.2,VALID,96.4819,VALID,0,VALID,19.2348,VALID,53,VALID,0,
2013-01-10, 01:16:04,VALID,918.228,VALID,0,VALID,96.5124,VALID,0.107441,VALID,19.2348,VALID,53,VALID,0,
2013-01-10, 01:17:04,VALID,918.222,VALID,0,VALID,96.5277,VALID,0.107441,VALID,19.2753,VALID,53,VALID,0,
2013-01-10, 01:18:04,VALID,918.191,VALID,0,VALID,96.5353,VALID,0.107441,VALID,19.2738,VALID,53,VALID,0,
2013-01-10, 01:19:04,VALID,918.186,VALID,0,VALID,96.5506,VALID,0,VALID,19.2738,VALID,53,VALID,0,
2013-01-10, 01:20:04,VALID,918.161,VALID,0,VALID,96.5277,VALID,0.107441,VALID,19.2348,VALID,53,VALID,0,
2013-01-10, 01:21:04,VALID,918.151,VALID,0.2,VALID,96.4896,VALID,0,VALID,19.1958,VALID,53,VALID,0,
2013-01-10, 01:22:04,VALID,918.125,VALID,0,VALID,96.4896,VALID,0,VALID,19.1958,VALID,53,VALID,0,
2013-01-10, 01:23:04,VALID,918.158,VALID,0,VALID,96.5201,VALID,0.107441,VALID,19.1958,VALID,53,VALID,0,
2013-01-10, 01:24:04,VALID,918.134,VALID,0,VALID,96.5582,VALID,0.107441,VALID,19.1958,VALID,53,VALID,0,
2013-01-10, 01:25:04,VALID,918.128,VALID,0,VALID,96.5658,VALID,0.107441,VALID,19.2363,VALID,53,VALID,0,
2013-01-10, 01:26:04,VALID,918.116,VALID,0,VALID,96.5658,VALID,0,VALID,19.1958,VALID,53,VALID,0,
2013-01-10, 01:27:04,VALID,918.082,VALID,0,VALID,96.5887,VALID,0,VALID,19.2153,VALID,53,VALID,0,
2013-01-10, 01:28:04,VALID,918.055,VALID,0,VALID,96.642,VALID,0.107441,VALID,19.2543,VALID,53,VALID,0,
2013-01-10, 01:29:04,VALID,918.061,VALID,0,VALID,96.6649,VALID,0,VALID,19.2738,VALID,53,VALID,0,
2013-01-10, 01:30:04,VALID,918.041,VALID,0,VALID,96.642,VALID,0.107441,VALID,19.2933,VALID,53,VALID,0,
2013-01-10, 01:31:04,VALID,918.053,VALID,0,VALID,96.6878,VALID,0,VALID,19.2933,VALID,53,VALID,0,
2013-01-10, 01:32:04,VALID,918.073,VALID,0,VALID,96.7183,VALID,0,VALID,19.3323,VALID,53,VALID,0,
2013-01-10, 01:33:04,VALID,918.088,VALID,0,VALID,96.7259,VALID,0,VALID,19.3518,VALID,53,VALID,0,
2013-01-10, 01:34:04,VALID,918.094,VALID,0,VALID,96.7183,VALID,0,VALID,19.3518,VALID,53,VALID,0,
2013-01-10, 01:35:04,VALID,918.085,VALID,0,VALID,96.7107,VALID,0.107441,VALID,19.3908,VALID,53,VALID,0,
2013-01-10, 01:36:04,VALID,918.091,VALID,0,VALID,96.7335,VALID,0,VALID,19.3908,VALID,53,VALID,0,
2013-01-10, 01:37:04,VALID,918.048,VALID,0,VALID,96.7183,VALID,0,VALID,19.4313,VALID,53,VALID,0,
2013-01-10, 01:38:04,VALID,918.084,VALID,0,VALID,96.7183,VALID,0,VALID,19.3908,VALID,53,VALID,0,
2013-01-10, 01:39:04,VALID,918.031,VALID,0,VALID,96.7335,VALID,0.107441,VALID,19.4298,VALID,53,VALID,0,
2013-01-10, 01:40:05,VALID,918.025,VALID,0,VALID,96.7564,VALID,0.107441,VALID,19.4493,VALID,53,VALID,0,
2013-01-10, 01:41:05,VALID,918.005,VALID,0,VALID,96.7564,VALID,0,VALID,19.4688,VALID,53,VALID,0,
2013-01-10, 01:42:05,VALID,918.012,VALID,0,VALID,96.764,VALID,0,VALID,19.4898,VALID,53,VALID,0,
2013-01-10, 01:43:05,VALID,917.993,VALID,0,VALID,96.7793,VALID,0,VALID,19.4703,VALID,53,VALID,0,
2013-01-10, 01:44:05,VALID,917.952,VALID,0,VALID,96.7335,VALID,0,VALID,19.4508,VALID,53,VALID,0,
2013-01-10, 01:45:05,VALID,917.965,VALID,0,VALID,96.7335,VALID,0,VALID,19.4508,VALID,53,VALID,0,
2013-01-10, 01:46:05,VALID,917.953,VALID,0,VALID,96.7259,VALID,0,VALID,19.4313,VALID,53,VALID,0,
2013-01-10, 01:47:05,VALID,917.936,VALID,0,VALID,96.7411,VALID,0,VALID,19.4118,VALID,53,VALID,0,
2013-01-10, 01:48:05,VALID,917.92,VALID,0.2,VALID,96.764,VALID,0,VALID,19.4313,VALID,53,VALID,0,
2013-01-10, 01:49:05,VALID,917.949,VALID,0,VALID,96.7564,VALID,0,VALID,19.4313,VALID,53,VALID,0,
2013-01-10, 01:50:05,VALID,917.945,VALID,0,VALID,96.7564,VALID,0,VALID,19.4313,VALID,53,VALID,0,
2013-01-10, 01:51:05,VALID,917.918,VALID,0,VALID,96.7488,VALID,0,VALID,19.4118,VALID,53,VALID,0,
2013-01-10, 01:52:05,VALID,917.9,VALID,0,VALID,96.7564,VALID,0,VALID,19.4118,VALID,53,VALID,0,
2013-01-10, 01:53:05,VALID,917.851,VALID,0,VALID,96.7716,VALID,0,VALID,19.4118,VALID,53,VALID,0,
2013-01-10, 01:54:05,VALID,917.833,VALID,0,VALID,96.7869,VALID,0,VALID,19.4118,VALID,43,VALID,0,
2013-01-10, 01:55:05,VALID,917.836,VALID,0,VALID,96.7716,VALID,0,VALID,19.4313,VALID,41,VALID,0,
2013-01-10, 01:56:05,VALID,917.825,VALID,0,VALID,96.8098,VALID,0,VALID,19.4118,VALID,41,VALID,0,
2013-01-10, 01:57:05,VALID,917.779,VALID,0,VALID,96.7945,VALID,0,VALID,19.4508,VALID,41,VALID,0,
2013-01-10, 01:58:05,VALID,917.766,VALID,0,VALID,96.8174,VALID,0,VALID,19.4508,VALID,41,VALID,0,
2013-01-10, 01:59:05,VALID,917.745,VALID,0,VALID,96.8098,VALID,0,VALID,19.4508,VALID,41,VALID,0,
2013-01-10, 02:00:05,VALID,917.736,VALID,0,VALID,96.825,VALID,0,VALID,19.4508,VALID,41,VALID,0,
2013-01-10, 02:01:05,VALID,917.702,VALID,0,VALID,96.825,VALID,0,VALID,19.4508,VALID,41,VALID,0,
2013-01-10, 02:02:05,VALID,917.683,VALID,0,VALID,96.8174,VALID,0,VALID,19.4298,VALID,41,VALID,0,
2013-01-10, 02:03:05,VALID,917.666,VALID,0,VALID,96.8174,VALID,0,VALID,19.4508,VALID,41,VALID,0,
2013-01-10, 02:04:05,VALID,917.596,VALID,0,VALID,96.8021,VALID,0,VALID,19.4313,VALID,41,VALID,0,
2013-01-10, 02:05:05,VALID,917.578,VALID,0,VALID,96.8098,VALID,0,VALID,19.4118,VALID,17,VALID,0,
2013-01-10, 02:06:05,VALID,917.597,VALID,0,VALID,96.825,VALID,0,VALID,19.3923,VALID,9,VALID,0,
2013-01-10, 02:07:05,VALID,917.611,VALID,0,VALID,96.8174,VALID,0,VALID,19.3923,VALID,9,VALID,0,
2013-01-10, 02:08:05,VALID,917.577,VALID,0,VALID,96.8555,VALID,0,VALID,19.4118,VALID,9,VALID,0,
2013-01-10, 02:09:05,VALID,917.6,VALID,0,VALID,96.8479,VALID,0,VALID,19.3923,VALID,9,VALID,0,
2013-01-10, 02:10:05,VALID,917.578,VALID,0,VALID,96.8631,VALID,0,VALID,19.4118,VALID,9,VALID,0,
2013-01-10, 02:11:05,VALID,917.559,VALID,0,VALID,96.8707,VALID,0,VALID,19.3923,VALID,9,VALID,0,
2013-01-10, 02:12:05,VALID,917.529,VALID,0,VALID,96.8631,VALID,0,VALID,19.3923,VALID,346,VALID,0,
2013-01-10, 02:13:05,VALID,917.531,VALID,0,VALID,96.8631,VALID,0,VALID,19.3728,VALID,14,VALID,0,
2013-01-10, 02:14:05,VALID,917.522,VALID,0,VALID,96.8631,VALID,0,VALID,19.3728,VALID,8,VALID,0,
2013-01-10, 02:15:05,VALID,917.52,VALID,0,VALID,96.8936,VALID,0,VALID,19.3742,VALID,8,VALID,0,
2013-01-10, 02:16:05,VALID,917.488,VALID,0,VALID,96.886,VALID,0,VALID,19.4132,VALID,8,VALID,0,
2013-01-10, 02:17:05,VALID,917.444,VALID,0,VALID,96.9012,VALID,0,VALID,19.3518,VALID,8,VALID,0,
2013-01-10, 02:18:05,VALID,917.451,VALID,0,VALID,96.9165,VALID,0,VALID,19.3728,VALID,8,VALID,0,
2013-01-10, 02:19:05,VALID,917.416,VALID,0,VALID,96.9089,VALID,0,VALID,19.3923,VALID,8,VALID,0,
2013-01-10, 02:20:05,VALID,917.394,VALID,0,VALID,96.9241,VALID,0,VALID,19.4118,VALID,8,VALID,0,
2013-01-10, 02:21:05,VALID,917.385,VALID,0,VALID,96.947,VALID,0,VALID,19.4118,VALID,8,VALID,0,
2013-01-10, 02:22:05,VALID,917.396,VALID,0,VALID,96.9317,VALID,0,VALID,19.4132,VALID,8,VALID,0,
2013-01-10, 02:23:05,VALID,917.351,VALID,0,VALID,96.9241,VALID,0,VALID,19.3923,VALID,8,VALID,0,
2013-01-10, 02:24:05,VALID,917.37,VALID,0,VALID,96.9089,VALID,0,VALID,19.3728,VALID,8,VALID,0,
2013-01-10, 02:25:05,VALID,917.305,VALID,0,VALID,96.9394,VALID,0,VALID,19.3923,VALID,8,VALID,0,
2013-01-10, 02:26:05,VALID,917.295,VALID,0,VALID,96.9546,VALID,0,VALID,19.4118,VALID,8,VALID,0,
2013-01-10, 02:27:05,VALID,917.274,VALID,0,VALID,96.9317,VALID,0,VALID,19.4327,VALID,8,VALID,0,
2013-01-10, 02:28:05,VALID,917.247,VALID,0,VALID,96.9317,VALID,0,VALID,19.4118,VALID,8,VALID,0,
2013-01-10, 02:29:05,VALID,917.234,VALID,0,VALID,96.9165,VALID,0,VALID,19.3728,VALID,8,VALID,0,
2013-01-10, 02:30:05,VALID,917.254,VALID,0,VALID,96.886,VALID,0,VALID,19.3728,VALID,349,VALID,0,
2013-01-10, 02:31:05,VALID,917.221,VALID,0,VALID,96.8784,VALID,0,VALID,19.3338,VALID,349,VALID,0,
2013-01-10, 02:32:05,VALID,917.219,VALID,0,VALID,96.825,VALID,0,VALID,19.3143,VALID,357,VALID,0,
2013-01-10, 02:33:05,VALID,917.171,VALID,0,VALID,96.8403,VALID,0,VALID,19.3143,VALID,357,VALID,0,
2013-01-10, 02:34:05,VALID,917.198,VALID,0,VALID,96.8403,VALID,0,VALID,19.3143,VALID,357,VALID,0,
2013-01-10, 02:35:05,VALID,917.184,VALID,0,VALID,96.825,VALID,0,VALID,19.3533,VALID,357,VALID,0,
2013-01-10, 02:36:05,VALID,917.164,VALID,0,VALID,96.8403,VALID,0,VALID,19.3547,VALID,357,VALID,0,
2013-01-10, 02:37:05,VALID,917.198,VALID,0,VALID,96.8479,VALID,0,VALID,19.3547,VALID,357,VALID,0,
2013-01-10, 02:38:05,VALID,917.164,VALID,0,VALID,96.8326,VALID,0,VALID,19.3338,VALID,357,VALID,0,
2013-01-10, 02:39:05,VALID,917.149,VALID,0,VALID,96.8479,VALID,0,VALID,19.3533,VALID,357,VALID,0,
2013-01-10, 02:40:05,VALID,917.168,VALID,0,VALID,96.8479,VALID,0,VALID,19.3742,VALID,357,VALID,0,
2013-01-10, 02:41:05,VALID,917.126,VALID,0,VALID,96.8479,VALID,0,VALID,19.3547,VALID,357,VALID,0,
2013-01-10, 02:42:05,VALID,917.126,VALID,0,VALID,96.8403,VALID,0,VALID,19.3143,VALID,357,VALID,0,
2013-01-10, 02:43:05,VALID,917.109,VALID,0,VALID,96.8326,VALID,0,VALID,19.3338,VALID,357,VALID,0,
2013-01-10, 02:44:05,VALID,917.125,VALID,0,VALID,96.8479,VALID,0,VALID,19.3338,VALID,357,VALID,0,
2013-01-10, 02:45:05,VALID,917.096,VALID,0,VALID,96.8479,VALID,0,VALID,19.3143,VALID,357,VALID,0,
2013-01-10, 02:46:05,VALID,917.07,VALID,0,VALID,96.8403,VALID,0,VALID,19.3352,VALID,357,VALID,0,
2013-01-10, 02:47:05,VALID,917.049,VALID,0,VALID,96.825,VALID,0,VALID,19.2948,VALID,357,VALID,0,
2013-01-10, 02:48:05,VALID,916.988,VALID,0,VALID,96.825,VALID,0,VALID,19.3143,VALID,357,VALID,0,
2013-01-10, 02:49:05,VALID,916.988,VALID,0,VALID,96.8326,VALID,0,VALID,19.3338,VALID,357,VALID,0,
2013-01-10, 02:50:05,VALID,916.947,VALID,0,VALID,96.8326,VALID,0,VALID,19.3338,VALID,357,VALID,0,
2013-01-10, 02:51:05,VALID,916.898,VALID,0,VALID,96.7945,VALID,0,VALID,19.2948,VALID,357,VALID,0,
2013-01-10, 02:52:05,VALID,916.922,VALID,0,VALID,96.7564,VALID,0,VALID,19.2753,VALID,357,VALID,0,
2013-01-10, 02:53:05,VALID,916.901,VALID,0,VALID,96.7259,VALID,0,VALID,19.2363,VALID,357,VALID,0,
2013-01-10, 02:54:05,VALID,916.887,VALID,0,VALID,96.6649,VALID,0,VALID,19.2363,VALID,357,VALID,0,
2013-01-10, 02:55:05,VALID,916.905,VALID,0,VALID,96.6344,VALID,0,VALID,19.2767,VALID,357,VALID,0,
2013-01-10, 02:56:05,VALID,916.889,VALID,0,VALID,96.5963,VALID,0,VALID,19.2363,VALID,357,VALID,0,
2013-01-10, 02:57:05,VALID,916.866,VALID,0,VALID,96.4972,VALID,0,VALID,19.2363,VALID,357,VALID,0,
2013-01-10, 02:58:05,VALID,916.86,VALID,0,VALID,96.4286,VALID,0,VALID,19.2558,VALID,357,VALID,0,
2013-01-10, 02:59:05,VALID,916.844,VALID,0,VALID,96.36,VALID,0,VALID,19.2558,VALID,357,VALID,0,
2013-01-10, 03:00:05,VALID,916.863,VALID,0,VALID,96.299,VALID,0,VALID,19.2962,VALID,357,VALID,0,
2013-01-10, 03:01:05,VALID,916.854,VALID,0,VALID,96.2837,VALID,0,VALID,19.2962,VALID,357,VALID,0,
2013-01-10, 03:02:05,VALID,916.868,VALID,0,VALID,96.2761,VALID,0,VALID,19.2962,VALID,357,VALID,0,
2013-01-10, 03:03:05,VALID,916.869,VALID,0,VALID,96.238,VALID,0,VALID,19.2948,VALID,357,VALID,0,
2013-01-10, 03:04:05,VALID,916.896,VALID,0,VALID,96.2304,VALID,0,VALID,19.2753,VALID,357,VALID,0,
2013-01-10, 03:05:05,VALID,916.886,VALID,0,VALID,96.2533,VALID,0,VALID,19.3157,VALID,357,VALID,0,
2013-01-10, 03:06:05,VALID,916.86,VALID,0,VALID,96.2609,VALID,0,VALID,19.3143,VALID,357,VALID,0,
2013-01-10, 03:07:05,VALID,916.87,VALID,0,VALID,96.1694,VALID,0,VALID,19.3143,VALID,357,VALID,0,
2013-01-10, 03:08:05,VALID,916.864,VALID,0,VALID,96.1923,VALID,0,VALID,19.3338,VALID,357,VALID,0,
2013-01-10, 03:09:05,VALID,916.906,VALID,0,VALID,96.1313,VALID,0,VALID,19.3338,VALID,357,VALID,0,
2013-01-10, 03:10:05,VALID,916.88,VALID,0,VALID,95.9636,VALID,0,VALID,19.3547,VALID,357,VALID,0,
2013-01-10, 03:11:05,VALID,916.865,VALID,0,VALID,95.9407,VALID,0,VALID,19.3143,VALID,357,VALID,0,
2013-01-10, 03:12:05,VALID,916.86,VALID,0,VALID,95.9254,VALID,0,VALID,19.3338,VALID,357,VALID,0,
2013-01-10, 03:13:05,VALID,916.865,VALID,0,VALID,95.9254,VALID,0,VALID,19.3338,VALID,357,VALID,0,
2013-01-10, 03:14:05,VALID,916.846,VALID,0,VALID,95.9712,VALID,0,VALID,19.3533,VALID,357,VALID,0,
2013-01-10, 03:15:05,VALID,916.849,VALID,0,VALID,95.9254,VALID,0,VALID,19.3533,VALID,357,VALID,0,
2013-01-10, 03:16:05,VALID,916.829,VALID,0,VALID,95.895,VALID,0,VALID,19.3338,VALID,357,VALID,0,
2013-01-10, 03:17:05,VALID,916.835,VALID,0,VALID,95.8873,VALID,0,VALID,19.3143,VALID,357,VALID,0,
2013-01-10, 03:18:05,VALID,916.812,VALID,0,VALID,95.9559,VALID,0,VALID,19.3128,VALID,357,VALID,0,
2013-01-10, 03:19:05,VALID,916.816,VALID,0,VALID,96.0093,VALID,0,VALID,19.3338,VALID,357,VALID,0,
2013-01-10, 03:20:05,VALID,916.781,VALID,0,VALID,96.0322,VALID,0,VALID,19.3728,VALID,357,VALID,0,
2013-01-10, 03:21:05,VALID,916.796,VALID,0,VALID,96.1236,VALID,0,VALID,19.3533,VALID,357,VALID,0,
2013-01-10, 03:22:05,VALID,916.768,VALID,0,VALID,96.0322,VALID,0,VALID,19.3533,VALID,357,VALID,0,
2013-01-10, 03:23:05,VALID,916.748,VALID,0,VALID,96.0322,VALID,0,VALID,19.3338,VALID,357,VALID,0,
2013-01-10, 03:24:05,VALID,916.765,VALID,0,VALID,96.0932,VALID,0,VALID,19.3338,VALID,357,VALID,0,
2013-01-10, 03:25:05,VALID,916.748,VALID,0,VALID,96.0703,VALID,0,VALID,19.3143,VALID,357,VALID,0,
2013-01-10, 03:26:05,VALID,916.738,VALID,0,VALID,96.1084,VALID,0,VALID,19.3143,VALID,357,VALID,0,
2013-01-10, 03:27:05,VALID,916.759,VALID,0,VALID,96.0932,VALID,0,VALID,19.3157,VALID,357,VALID,0,
2013-01-10, 03:28:05,VALID,916.733,VALID,0,VALID,96.1236,VALID,0,VALID,19.2948,VALID,357,VALID,0,
2013-01-10, 03:29:05,VALID,916.72,VALID,0,VALID,96.0779,VALID,0,VALID,19.2753,VALID,357,VALID,0,
2013-01-10, 03:30:05,VALID,916.74,VALID,0,VALID,96.0627,VALID,0,VALID,19.2558,VALID,357,VALID,0,
2013-01-10, 03:31:05,VALID,916.721,VALID,0,VALID,96.0855,VALID,0,VALID,19.2363,VALID,357,VALID,0,
2013-01-10, 03:32:05,VALID,916.712,VALID,0,VALID,96.1465,VALID,0,VALID,19.2558,VALID,357,VALID,0,
2013-01-10, 03:33:05,VALID,916.707,VALID,0,VALID,96.0932,VALID,0,VALID,19.2363,VALID,357,VALID,0,
2013-01-10, 03:34:05,VALID,916.705,VALID,0,VALID,96.1465,VALID,0,VALID,19.2377,VALID,357,VALID,0,
2013-01-10, 03:35:05,VALID,916.711,VALID,0,VALID,96.1236,VALID,0,VALID,19.2168,VALID,357,VALID,0,
2013-01-10, 03:36:05,VALID,916.673,VALID,0,VALID,96.116,VALID,0,VALID,19.1973,VALID,357,VALID,0,
2013-01-10, 03:37:05,VALID,916.649,VALID,0,VALID,96.1084,VALID,0,VALID,19.1778,VALID,357,VALID,0,
2013-01-10, 03:38:05,VALID,916.621,VALID,0,VALID,96.1465,VALID,0,VALID,19.1987,VALID,357,VALID,0,
2013-01-10, 03:39:05,VALID,916.641,VALID,0,VALID,96.1923,VALID,0,VALID,19.1778,VALID,357,VALID,0,
2013-01-10, 03:40:05,VALID,916.643,VALID,0,VALID,96.2228,VALID,0,VALID,19.1987,VALID,357,VALID,0,
2013-01-10, 03:41:05,VALID,916.654,VALID,0,VALID,96.238,VALID,0,VALID,19.1973,VALID,357,VALID,0,
2013-01-10, 03:42:05,VALID,916.664,VALID,0,VALID,96.2685,VALID,0,VALID,19.2182,VALID,357,VALID,0,
2013-01-10, 03:43:05,VALID,916.628,VALID,0,VALID,96.2304,VALID,0,VALID,19.1987,VALID,357,VALID,0,
2013-01-10, 03:44:05,VALID,916.638,VALID,0,VALID,96.2456,VALID,0,VALID,19.1778,VALID,357,VALID,0,
2013-01-10, 03:45:05,VALID,916.599,VALID,0,VALID,96.2914,VALID,0,VALID,19.1792,VALID,357,VALID,0,
2013-01-10, 03:46:05,VALID,916.586,VALID,0,VALID,96.3066,VALID,0,VALID,19.1792,VALID,357,VALID,0,
2013-01-10, 03:47:05,VALID,916.602,VALID,0,VALID,96.3142,VALID,0,VALID,19.1597,VALID,357,VALID,0,
2013-01-10, 03:48:05,VALID,916.586,VALID,0,VALID,96.238,VALID,0,VALID,19.0998,VALID,357,VALID,0,
2013-01-10, 03:49:05,VALID,916.616,VALID,0,VALID,96.2837,VALID,0,VALID,19.0998,VALID,357,VALID,0,
2013-01-10, 03:50:05,VALID,916.601,VALID,0,VALID,96.3295,VALID,0,VALID,19.0998,VALID,357,VALID,0,
2013-01-10, 03:51:05,VALID,916.559,VALID,0,VALID,96.3142,VALID,0,VALID,19.0817,VALID,110,VALID,0,
2013-01-10, 03:52:05,VALID,916.579,VALID,0,VALID,96.2685,VALID,0,VALID,19.0427,VALID,110,VALID,0,
2013-01-10, 03:53:05,VALID,916.576,VALID,0,VALID,96.3524,VALID,0,VALID,19.0608,VALID,110,VALID,0,
2013-01-10, 03:54:05,VALID,916.593,VALID,0,VALID,96.3371,VALID,0,VALID,19.0608,VALID,110,VALID,0,
2013-01-10, 03:55:05,VALID,916.598,VALID,0,VALID,96.3219,VALID,0,VALID,19.0998,VALID,110,VALID,0,
2013-01-10, 03:56:05,VALID,916.619,VALID,0,VALID,96.3066,VALID,0,VALID,19.1402,VALID,110,VALID,0,
2013-01-10, 03:57:05,VALID,916.581,VALID,0,VALID,96.3066,VALID,0,VALID,19.1193,VALID,110,VALID,0,
2013-01-10, 03:58:05,VALID,916.583,VALID,0,VALID,96.2228,VALID,0,VALID,19.1193,VALID,110,VALID,0,
2013-01-10, 03:59:05,VALID,916.6,VALID,0,VALID,96.2075,VALID,0,VALID,19.1193,VALID,110,VALID,0,
2013-01-10, 04:00:05,VALID,916.608,VALID,0,VALID,96.1694,VALID,0,VALID,19.1388,VALID,110,VALID,0,